STARLINK-11452 [DTC] (62511 NORAD) Tracking and Keplerian Element Data

This shows tracking and keplerian element data for the satellite.

Feedback or suggestion? Click here.




ElementValue
Catalog62511
NameSTARLINK-11452 [DTC]
Epoch Orbit543
Epoch Day35.14950948
Epoch Year2025
RAAN314.3424
Inclination42.9952
Eccentricity0.0001188
Argument of Perigee262.6952
Mean Anonmoly97.3783
Mean Motion15.77858824
Decay Rate3.847E-05
L11 62511U 25004A 25035.14950948 .00003847 00000+0 24953-4 0 9999
L22 62511 42.9952 314.3424 0001188 262.6952 97.3783 15.77858824 5433



Live tracking and technical data element details for STARLINK-11452 [DTC] (NORAD 62511). STARLINK-11452 [DTC] can be tracked NOW for your location showing map with azimuth and elevation plus other details from your city location.







IsCatalogInMostPopularTable: catalog: 62511, numindb: 20
Update: records affected: 1



GetName: 62511 STARLINK-11452 [DTC]

Hit Count: updated at: Sun, 18 May 2025 23:48:36 GMT